Wind_Speed
5 6 7 7 8 8 3 3 5 6 6 6 7 6 6 5 6 6 6 6 6 6 6 5 5 5 4 3 3 2 2 3 3 3 2 2 1 1 0 0 1 1 1 1 2 3 3 4 5
5 5 5 7 7 4 3 4 6 6 7 7 7 7 7 6 6 6 6 6 6 6 6 6 5 5 4 4 3 3 3 3 3 3 2 2 2 1 1 1 0 1 1 1 1 1 2 2 3
5 4 5 5 4 3 3 6 8 7 8 8 7 7 7 7 6 6 7 6 6 5 6 6 6 5 5 4 3 3 3 3 3 3 3 3 3 2 2 2 1 1 1 1 1 1 1 2 1
5 5 5 4 3 3 4 7 9 8 8 7 7 8 8 7 7 7 7 7 6 6 6 6 6 5 5 4 3 3 4 4 4 4 3 3 3 3 2 2 2 1 1 1 1 1 1 1 1
5 4 4 2 2 5 7 7 10 9 10 8 7 8 8 7 7 7 7 7 7 6 6 6 6 5 5 4 4 4 4 4 4 4 4 4 3 3 2 2 2 2 2 2 1 2 2 1 1
5 3 2 2 2 7 9 8 8 8 8 9 8 8 8 8 8 7 8 7 7 7 7 6 5 5 5 5 5 5 4 4 4 4 4 4 4 4 3 3 2 3 3 3 2 1 2 2 2
6 3 3 3 4 9 9 9 9 8 8 8 10 10 9 9 8 8 8 8 7 7 7 6 5 5 5 5 5 5 5 5 4 4 4 4 4 4 3 4 3 3 3 3 2 2 2 2 2
5 5 5 5 7 10 11 11 9 10 11 9 11 10 9 9 9 8 8 8 8 7 7 6 6 5 5 5 5 6 5 5 5 5 4 4 4 4 4 4 3 4 3 3 3 2 2 3 3
7 8 7 5 9 9 10 10 10 10 12 11 11 10 10 9 9 9 9 9 9 8 7 7 6 5 5 5 5 5 5 5 5 5 5 5 5 4 4 4 4 4 4 4 3 3 3 3 3
8 9 7 7 10 9 11 11 10 10 13 12 11 10 10 10 9 9 9 9 9 9 8 7 6 6 5 6 6 5 5 5 5 5 6 5 5 5 5 4 4 5 5 5 4 4 4 4 4
10 10 10 11 10 12 13 12 10 11 12 13 12 12 10 10 10 9 9 9 9 9 9 7 7 6 6 7 7 6 6 5 5 5 5 6 6 6 6 5 5 5 6 6 5 5 5 5 5
12 12 13 12 12 12 13 13 12 11 12 13 12 12 11 10 10 10 9 9 10 9 8 8 7 7 7 7 8 7 6 6 6 6 6 6 6 6 6 5 5 5 6 6 6 6 7 7 7
13 12 14 13 12 13 13 13 13 13 13 13 12 11 11 11 10 9 9 10 9 8 8 7 7 7 7 8 9 8 8 7 7 7 7 7 7 6 6 6 6 6 7 7 6 6 7 7 8
13 13 15 13 13 13 13 14 14 13 14 13 12 12 12 12 11 10 9 10 10 9 9 8 8 7 7 7 8 9 8 8 8 8 8 8 9 8 7 7 7 7 7 7 7 7 7 7 8
14 15 15 13 14 14 13 15 15 14 14 14 13 14 12 12 12 12 11 11 10 10 9 8 8 8 8 8 9 9 8 8 9 9 8 9 9 9 9 9 9 8 8 8 8 7 8 9 9
16 16 14 13 15 16 15 15 15 15 15 16 16 15 14 13 13 13 13 12 11 11 10 9 9 9 9 9 10 10 10 9 9 9 9 10 10 10 10 10 10 9 9 9 9 9 9 9 9
15 14 13 13 17 18 17 15 15 17 16 17 17 16 15 15 15 14 13 13 13 12 12 11 10 10 11 11 10 11 11 10 10 10 10 11 11 11 11 11 11 10 10 10 10 10 10 10 10
14 14 14 14 18 19 19 17 16 16 18 19 19 18 17 16 15 14 14 14 14 13 13 12 12 12 12 12 11 11 12 11 11 11 11 12 11 11 11 11 11 11 11 11 11 11 11 11 11
16 17 18 17 18 20 21 19 18 17 19 19 19 18 17 17 16 15 15 15 14 14 13 13 13 13 13 12 12 12 12 12 12 11 11 12 11 11 11 11 11 12 11 11 11 11 11 12 12
18 18 18 17 17 19 20 20 19 17 18 18 19 18 18 17 17 16 16 16 15 14 14 14 13 13 13 13 13 13 13 13 13 13 13 13 12 12 11 12 12 12 12 12 11 11 12 11 11
20 19 18 18 19 20 21 20 19 17 17 18 18 18 19 19 18 17 17 17 16 16 15 15 15 14 14 14 14 14 14 14 14 14 14 14 13 13 13 12 13 13 13 12 12 12 12 12 11
21 18 18 19 21 21 19 20 18 16 18 18 18 18 19 19 19 18 17 18 17 17 17 17 16 16 15 15 15 15 15 15 15 14 14 15 14 13 12 12 12 12 12 12 13 13 13 13 12
20 17 18 19 21 21 20 20 18 16 18 19 19 19 19 20 20 19 18 18 18 18 18 18 18 17 17 16 16 16 17 17 17 16 16 15 14 13 13 13 13 12 12 12 13 14 14 14 14
20 19 20 21 22 23 20 20 19 18 18 19 21 20 20 20 21 20 19 19 19 19 19 19 19 19 18 18 18 18 17 17 18 17 16 15 15 14 15 14 14 14 14 14 14 14 14 15 15
20 20 20 21 22 21 19 21 20 20 19 21 21 21 21 22 23 23 21 20 20 20 20 19 19 19 19 19 19 19 18 18 18 18 17 16 16 16 16 15 16 15 15 15 15 15 15 15 16
21 20 21 21 19 19 19 22 20 21 21 20 20 21 22 23 23 23 23 22 21 21 20 20 20 20 20 20 20 20 19 19 19 18 18 17 17 17 16 16 17 16 17 17 17 17 17 17 17
19 20 20 21 19 19 19 19 21 21 22 23 25 23 23 24 24 24 24 24 22 22 21 21 21 21 21 21 21 21 21 20 20 19 19 18 17 17 17 18 18 18 17 18 18 18 18 18 18
19 19 19 20 20 19 18 18 20 22 25 25 26 25 24 25 25 24 24 25 23 22 22 22 22 21 21 21 21 21 22 21 20 20 19 19 18 18 19 19 19 19 19 19 19 19 20 20 20
20 20 21 21 21 21 20 20 20 22 23 26 27 26 27 26 24 25 25 24 23 22 22 23 23 22 22 22 22 22 22 21 21 20 19 19 19 19 19 19 20 20 20 20 20 21 21 21 21
21 21 22 24 23 22 22 22 21 24 25 25 26 24 24 23 24 25 25 24 23 23 23 23 23 22 22 23 23 23 22 22 22 21 20 20 20 20 20 20 20 20 20 20 21 21 21 21 21
Wind_Direction
91 87 80 74 66 64 41 325 312 312 329 329 329 325 315 317 317 321 323 328 341 343 344 343 339 335 329 322 298 289 295 284 277 283 288 276 260 231 236 193 166 180 188 200 190 191 199 220 213
102 96 85 76 60 57 342 307 300 317 319 325 332 328 319 311 310 313 320 330 339 340 340 342 340 337 331 324 300 282 284 284 284 283 295 307 309 300 266 248 227 267 235 202 175 199 204 218 207
124 113 87 71 36 20 338 310 304 314 318 325 327 326 322 310 310 314 320 327 332 334 335 337 338 338 336 331 313 294 287 286 285 287 293 307 316 310 301 265 262 285 272 250 253 228 214 227 212
141 126 96 72 37 343 307 300 303 309 310 318 323 320 318 313 313 315 320 325 326 327 327 329 327 327 331 333 320 308 301 294 285 287 294 304 313 319 309 281 267 292 294 277 254 252 305 257 219
151 135 106 57 352 302 284 290 298 310 311 316 319 316 316 320 317 316 321 321 323 322 321 323 323 317 320 323 314 313 311 309 294 289 293 300 304 312 309 300 283 289 289 282 294 293 284 278 230
177 157 149 196 287 280 289 290 294 299 305 314 319 319 321 318 322 321 323 324 325 325 322 322 321 316 311 310 309 306 306 307 299 294 296 301 304 304 294 294 285 271 279 283 277 269 273 266 239
192 194 191 212 262 271 279 286 293 303 304 310 314 316 322 321 323 324 324 328 329 328 325 325 326 319 311 304 303 300 300 297 293 287 286 294 302 308 299 297 279 274 273 276 263 254 244 243 238
200 208 202 216 248 262 280 290 293 299 300 304 306 312 313 316 320 321 324 327 328 325 327 328 329 324 317 313 308 304 299 293 287 280 278 284 297 304 301 297 281 276 284 288 258 250 247 246 235
210 224 210 210 249 254 274 281 284 290 293 298 303 306 311 316 314 317 322 327 329 328 328 330 330 325 322 319 314 314 308 299 286 276 276 281 289 298 298 295 284 281 288 295 280 276 282 263 262
221 232 225 224 250 253 263 269 276 277 280 289 294 302 307 311 312 318 321 326 331 331 329 331 326 324 323 318 317 316 316 308 295 278 275 274 279 285 286 284 282 283 289 294 290 282 289 284 273
232 238 235 230 239 250 260 265 266 271 276 285 291 292 296 306 311 318 322 325 328 329 327 326 322 322 321 319 321 323 318 310 298 287 280 271 273 278 281 278 282 288 291 293 294 288 289 285 277
232 234 240 240 244 247 256 262 264 265 268 277 286 294 296 300 313 318 323 324 327 328 325 321 325 323 319 317 319 314 311 304 298 290 278 272 274 272 274 273 279 289 291 291 289 284 282 283 276
232 238 242 245 249 252 254 256 262 266 272 276 284 292 292 298 306 306 312 315 312 317 321 319 320 321 321 318 320 315 307 302 303 298 283 281 288 283 279 287 285 285 287 287 284 282 285 282 281
233 236 242 247 248 252 256 259 260 264 271 273 277 284 286 291 296 293 302 307 310 311 315 313 311 311 313 314 316 314 313 314 312 304 293 289 287 287 282 285 288 289 287 289 280 275 279 286 285
234 244 243 248 254 255 259 262 267 262 271 277 279 279 280 287 291 293 296 297 301 305 307 306 305 302 303 309 311 310 305 308 308 306 299 293 289 286 284 285 284 285 287 288 286 282 281 279 281
236 244 250 257 262 259 258 265 274 267 269 276 280 279 279 284 285 287 288 291 292 299 301 300 296 296 295 299 304 307 303 299 300 301 300 292 287 287 284 282 281 283 285 286 285 283 282 281 281
237 247 253 255 260 260 263 265 262 266 272 276 280 278 275 278 281 283 287 290 293 297 297 296 291 290 291 293 295 300 301 300 299 297 296 295 289 288 285 282 279 280 282 283 283 282 283 281 282
235 249 250 251 259 263 264 263 259 263 273 276 277 276 274 274 277 280 283 287 292 294 295 295 291 290 292 291 291 295 296 298 299 296 295 297 296 293 288 283 281 278 280 280 280 282 282 281 280
230 236 240 243 256 261 263 266 260 261 270 271 273 275 274 272 274 276 280 285 287 290 290 292 291 288 289 288 287 290 292 294 297 298 295 295 297 294 289 283 280 279 279 279 278 281 285 285 282
237 238 239 244 252 261 262 266 264 258 264 270 270 273 278 273 273 276 278 280 283 288 288 289 289 290 290 288 287 289 292 293 294 294 293 293 294 293 289 284 281 280 279 278 278 281 283 285 284
236 238 239 242 252 257 264 267 266 262 260 266 273 276 278 277 275 274 275 278 280 283 285 285 287 288 287 289 288 288 290 293 293 293 293 292 293 294 290 286 284 282 278 277 275 279 280 281 282
241 239 243 243 252 256 261 263 262 259 261 266 272 274 275 275 276 275 273 275 277 279 282 283 282 284 285 287 287 286 287 289 292 293 294 292 294 294 290 284 283 282 281 279 279 279 280 280 280
244 243 248 249 251 249 248 258 260 260 266 269 272 273 275 275 274 274 272 272 273 274 277 279 281 283 283 284 285 286 286 287 288 291 291 289 290 292 291 287 283 282 283 283 282 281 280 280 280
242 242 244 245 248 251 250 256 264 263 263 268 269 271 275 275 272 271 271 271 271 273 275 276 278 280 280 283 283 284 286 285 285 287 285 286 287 287 288 286 283 282 284 285 286 286 283 281 280
242 242 246 249 249 252 256 258 261 266 260 263 267 271 272 272 272 273 272 271 271 271 272 274 275 276 279 281 282 285 285 284 285 286 284 283 283 284 284 282 282 282 283 283 282 285 285 283 282
243 241 242 245 249 257 258 258 257 263 264 264 266 267 270 271 271 273 273 270 270 271 272 273 273 275 277 279 280 283 284 283 284 284 282 280 280 282 282 281 280 280 282 281 281 282 282 284 284
239 240 242 246 250 256 257 261 261 263 265 267 268 266 268 271 271 270 271 272 270 271 272 272 272 274 276 277 278 280 279 280 281 281 280 280 280 280 281 282 282 281 281 281 282 283 283 283 283
241 244 245 243 247 254 258 255 265 270 270 270 270 271 271 270 271 271 270 271 269 270 269 270 270 273 274 275 277 278 278 278 278 278 278 279 279 280 281 282 283 283 282 281 282 283 284 283 282
242 238 240 245 248 251 258 260 262 266 269 270 273 274 273 271 269 269 268 269 267 267 267 268 270 271 271 273 276 277 277 277 278 276 276 277 279 279 280 281 282 283 282 282 281 282 284 282 281
241 238 239 242 245 247 253 261 264 264 266 268 271 275 277 272 269 267 265 265 267 269 268 268 268 270 270 272 273 275 276 277 277 276 276 278 281 281 281 282 282 281 282 283 282 283 283 282 281
Height
5898 5899 5899 5899 5900 5900 5900 5900 5899 5897 5896 5895 5893 5892 5891 5890 5890 5890 5887 5885 5884 5883 5882 5882 5881 5880 5879 5879 5879 5878 5878 5877 5877 5877 5876 5876 5875 5875 5875 5875 5874 5874 5874 5874 5875 5875 5875 5876 5876
5899 5899 5900 5899 5900 5900 5900 5899 5898 5897 5896 5895 5893 5892 5890 5889 5888 5887 5886 5885 5884 5883 5882 5881 5881 5880 5879 5879 5878 5878 5878 5877 5877 5877 5876 5876 5876 5876 5875 5875 5874 5874 5875 5875 5875 5875 5876 5876 5876
5898 5899 5900 5900 5901 5901 5901 5899 5898 5897 5896 5894 5893 5892 5890 5889 5888 5887 5886 5885 5884 5883 5882 5881 5881 5880 5879 5879 5878 5878 5878 5877 5877 5877 5876 5876 5876 5876 5875 5875 5875 5875 5875 5875 5875 5875 5876 5876 5877
5898 5900 5900 5902 5902 5902 5902 5900 5898 5897 5896 5894 5893 5892 5889 5888 5888 5887 5885 5885 5884 5883 5882 5881 5880 5880 5879 5879 5878 5878 5878 5877 5877 5877 5876 5876 5876 5876 5875 5875 5875 5875 5875 5875 5875 5875 5876 5876 5877
5898 5899 5900 5902 5902 5903 5902 5900 5898 5897 5895 5894 5892 5891 5889 5888 5887 5886 5885 5884 5884 5882 5882 5881 5880 5879 5879 5879 5878 5878 5878 5877 5877 5876 5876 5876 5876 5876 5876 5875 5875 5875 5874 5875 5875 5876 5876 5876 5876
5897 5898 5899 5902 5902 5903 5901 5899 5897 5897 5895 5893 5892 5890 5889 5888 5887 5886 5885 5884 5883 5882 5881 5880 5879 5879 5879 5878 5878 5878 5877 5877 5876 5876 5876 5876 5876 5876 5876 5875 5875 5875 5874 5875 5875 5875 5876 5876 5876
5896 5896 5897 5901 5902 5902 5901 5899 5897 5896 5894 5893 5891 5890 5889 5888 5887 5886 5885 5884 5882 5881 5881 5880 5879 5879 5878 5878 5878 5877 5877 5876 5876 5876 5876 5876 5876 5875 5875 5875 5875 5875 5874 5874 5875 5875 5876 5876 5876
5894 5896 5897 5900 5901 5901 5900 5898 5897 5896 5894 5892 5891 5890 5889 5888 5887 5886 5885 5883 5882 5881 5880 5879 5879 5878 5878 5877 5877 5877 5876 5876 5875 5875 5875 5875 5875 5875 5875 5874 5874 5874 5874 5874 5874 5875 5875 5875 5876
5893 5896 5896 5897 5900 5899 5898 5898 5897 5895 5893 5892 5890 5889 5888 5887 5886 5885 5884 5883 5882 5881 5880 5879 5879 5878 5878 5877 5877 5876 5876 5875 5875 5875 5875 5875 5875 5875 5874 5874 5874 5874 5874 5874 5874 5874 5875 5875 5875
5892 5894 5894 5896 5898 5897 5897 5896 5895 5894 5891 5890 5889 5888 5887 5886 5886 5885 5884 5883 5882 5881 5880 5879 5878 5878 5878 5877 5876 5876 5875 5875 5875 5875 5874 5875 5875 5874 5874 5874 5874 5874 5874 5874 5874 5874 5874 5874 5875
5890 5892 5892 5893 5894 5894 5894 5894 5893 5893 5891 5889 5888 5887 5886 5886 5885 5884 5883 5882 5881 5880 5879 5879 5878 5878 5877 5877 5875 5875 5875 5875 5874 5874 5874 5874 5874 5874 5874 5873 5873 5873 5873 5873 5873 5873 5873 5874 5874
5889 5889 5890 5890 5891 5892 5893 5892 5892 5891 5890 5887 5886 5885 5885 5885 5884 5883 5882 5882 5881 5880 5879 5878 5878 5877 5877 5876 5876 5875 5875 5874 5874 5873 5873 5873 5873 5873 5873 5873 5873 5872 5872 5872 5872 5873 5873 5873 5873
5885 5886 5887 5887 5889 5890 5890 5889 5889 5889 5887 5886 5884 5884 5884 5884 5883 5882 5881 5881 5880 5879 5879 5878 5877 5877 5876 5876 5875 5874 5874 5874 5873 5873 5872 5872 5872 5872 5872 5872 5872 5872 5871 5871 5871 5872 5872 5872 5872
5882 5883 5884 5885 5887 5887 5887 5887 5887 5886 5885 5884 5883 5883 5882 5882 5881 5880 5879 5880 5879 5878 5878 5877 5877 5876 5876 5875 5874 5874 5873 5873 5872 5872 5871 5871 5871 5871 5871 5871 5871 5871 5871 5870 5870 5870 5871 5871 5871
5879 5880 5881 5882 5884 5884 5885 5884 5884 5882 5882 5880 5881 5881 5880 5880 5880 5880 5879 5879 5878 5878 5877 5876 5876 5875 5875 5874 5874 5873 5873 5872 5871 5871 5870 5870 5869 5869 5870 5870 5870 5870 5870 5869 5869 5869 5869 5870 5870
5875 5876 5878 5880 5881 5881 5883 5882 5882 5880 5880 5879 5879 5880 5879 5878 5878 5878 5878 5877 5877 5876 5876 5875 5875 5874 5874 5873 5873 5872 5872 5871 5870 5870 5869 5869 5868 5868 5868 5868 5868 5868 5868 5868 5868 5868 5867 5867 5868
5872 5873 5875 5878 5878 5877 5878 5879 5879 5877 5877 5877 5877 5877 5877 5876 5876 5876 5875 5875 5875 5875 5874 5874 5873 5873 5872 5872 5871 5871 5870 5869 5869 5868 5868 5867 5865 5866 5866 5866 5867 5866 5866 5867 5866 5866 5865 5866 5866
5870 5872 5874 5876 5876 5875 5874 5875 5875 5874 5876 5875 5874 5874 5874 5874 5874 5874 5873 5873 5873 5873 5872 5871 5871 5871 5870 5870 5869 5869 5868 5868 5867 5867 5866 5865 5865 5864 5864 5864 5864 5864 5864 5864 5864 5864 5864 5864 5864
5867 5869 5872 5873 5873 5871 5871 5871 5872 5871 5872 5872 5871 5870 5871 5871 5871 5871 5870 5870 5870 5870 5870 5870 5869 5869 5868 5868 5867 5867 5866 5866 5865 5865 5864 5864 5863 5862 5862 5862 5862 5862 5862 5862 5862 5862 5862 5862 5861
5863 5865 5867 5869 5869 5868 5867 5868 5867 5868 5869 5869 5868 5867 5867 5867 5868 5868 5868 5868 5868 5868 5867 5867 5867 5867 5866 5866 5865 5864 5864 5864 5863 5863 5863 5862 5861 5861 5860 5859 5859 5859 5859 5859 5859 5859 5859 5859 5859
5858 5860 5862 5864 5864 5864 5864 5864 5863 5864 5865 5865 5865 5864 5864 5864 5864 5865 5865 5865 5865 5865 5865 5865 5864 5864 5864 5863 5863 5863 5862 5862 5861 5861 5860 5859 5859 5858 5858 5857 5857 5856 5856 5856 5856 5856 5857 5857 5857
5853 5856 5858 5859 5860 5859 5861 5860 5860 5859 5860 5861 5862 5861 5861 5861 5860 5861 5861 5861 5861 5861 5861 5861 5861 5861 5861 5861 5860 5860 5860 5859 5859 5858 5857 5857 5856 5855 5855 5855 5854 5853 5853 5853 5853 5853 5854 5854 5854
5849 5852 5853 5854 5855 5856 5856 5856 5857 5856 5857 5857 5857 5857 5857 5857 5856 5857 5858 5858 5858 5858 5858 5858 5858 5858 5858 5858 5858 5857 5857 5857 5856 5855 5854 5854 5853 5852 5852 5851 5851 5851 5850 5850 5850 5850 5850 5850 5851
5845 5847 5848 5849 5849 5850 5851 5851 5852 5852 5853 5853 5853 5853 5853 5853 5852 5852 5853 5853 5854 5854 5854 5854 5854 5855 5855 5855 5854 5854 5854 5853 5853 5852 5851 5851 5850 5850 5849 5848 5848 5848 5847 5848 5847 5847 5847 5847 5847
5840 5842 5844 5844 5844 5845 5848 5847 5848 5848 5848 5848 5848 5849 5849 5849 5848 5848 5848 5849 5850 5850 5850 5850 5851 5851 5851 5851 5851 5850 5850 5850 5849 5849 5848 5847 5847 5846 5846 5845 5845 5844 5844 5844 5844 5844 5844 5843 5843
5835 5837 5840 5841 5842 5843 5844 5843 5844 5844 5843 5843 5844 5844 5844 5844 5843 5844 5843 5843 5845 5845 5846 5846 5846 5846 5846 5846 5846 5846 5846 5845 5845 5845 5844 5844 5843 5843 5842 5842 5841 5841 5841 5840 5840 5840 5840 5840 5839
5830 5832 5835 5837 5837 5838 5839 5839 5837 5838 5839 5839 5839 5839 5839 5839 5839 5839 5839 5838 5839 5840 5841 5841 5841 5842 5842 5842 5842 5842 5841 5841 5841 5841 5840 5840 5840 5839 5838 5838 5837 5836 5836 5836 5836 5836 5836 5835 5835
5825 5828 5829 5830 5831 5832 5834 5834 5834 5833 5833 5834 5833 5833 5833 5833 5833 5833 5833 5832 5832 5834 5835 5836 5836 5837 5837 5837 5837 5837 5837 5836 5836 5836 5836 5836 5835 5835 5834 5834 5833 5832 5832 5832 5832 5832 5831 5831 5830
5820 5822 5823 5825 5827 5828 5829 5831 5829 5828 5828 5827 5827 5827 5827 5827 5828 5828 5827 5827 5828 5829 5830 5830 5831 5831 5831 5832 5832 5832 5832 5832 5831 5831 5831 5831 5831 5830 5830 5829 5828 5828 5827 5827 5827 5827 5826 5826 5825
5814 5816 5818 5820 5821 5822 5823 5826 5823 5822 5821 5821 5821 5820 5821 5820 5821 5821 5822 5822 5822 5823 5824 5825 5825 5825 5826 5826 5826 5826 5826 5826 5826 5826 5826 5826 5826 5825 5825 5824 5823 5823 5822 5822 5821 5821 5821 5820 5820